Total_Precipitation_Accumulation
1.26 1.18 1.86 2.71 2.90 2.09 1.73 1.42 1.12 1.07 0.93 0.79 0.64 0.60 0.70 0.96 1.17 1.42 1.43 1.41 0.87 0.81 0.91 1.23 1.59 1.47 1.27 1.14 1.11 1.06 0.88 0.69 0.61 0.60 0.57 0.50 0.46 0.47 0.46 0.45 0.41 0.42 0.41 0.41 0.47 0.53 0.48 0.50 0.58
0.91 1.45 2.36 3.14 2.59 1.81 1.72 1.39 1.16 1.08 0.88 0.64 0.51 0.49 0.52 0.43 0.34 0.70 1.48 1.61 0.94 0.76 0.82 0.97 1.42 1.40 1.25 1.17 1.09 1.15 1.00 0.75 0.65 0.62 0.56 0.49 0.44 0.47 0.54 0.56 0.47 0.44 0.42 0.39 0.43 0.54 0.48 0.46 0.53
1.26 2.13 2.95 2.92 2.00 1.69 1.68 1.42 1.17 0.83 0.61 0.55 0.50 0.43 0.44 0.53 0.56 0.99 1.47 1.17 0.83 0.71 0.80 1.18 1.48 1.26 1.13 1.10 1.14 1.25 1.11 0.94 0.81 0.69 0.59 0.55 0.51 0.51 0.60 0.55 0.53 0.52 0.47 0.46 0.52 0.59 0.54 0.46 0.44
1.68 2.57 2.93 2.47 1.84 1.47 1.34 1.33 1.09 0.79 0.58 0.39 0.38 0.43 0.43 0.61 0.70 0.97 1.03 0.77 0.65 0.69 0.79 1.05 1.23 1.14 1.09 1.10 1.12 1.14 1.15 1.14 0.95 0.78 0.71 0.69 0.66 0.65 0.67 0.67 0.60 0.60 0.58 0.59 0.60 0.59 0.58 0.53 0.50
2.12 2.67 2.60 2.32 1.88 1.51 1.23 1.12 1.01 0.83 0.61 0.40 0.40 0.54 0.73 1.03 0.96 0.91 0.84 0.65 0.56 0.59 0.68 0.82 1.04 0.98 0.97 1.01 1.07 1.05 1.11 1.19 1.05 0.82 0.80 0.82 0.74 0.74 0.76 0.78 0.68 0.66 0.63 0.64 0.67 0.61 0.59 0.57 0.56
2.47 2.48 2.44 2.30 2.04 1.71 1.39 1.00 0.85 0.76 0.52 0.40 0.43 0.57 0.96 1.23 1.17 1.09 0.90 0.89 0.78 0.68 0.65 0.71 0.91 0.96 0.95 0.99 1.09 1.00 1.02 1.11 1.05 0.93 0.86 0.80 0.79 0.82 0.83 0.79 0.74 0.68 0.69 0.69 0.71 0.71 0.64 0.61 0.60
2.38 2.26 2.19 1.81 1.83 2.05 1.54 0.91 0.86 0.76 0.65 0.51 0.36 0.54 0.88 1.03 0.91 0.90 0.85 0.89 1.02 1.06 0.95 0.77 0.72 0.76 0.83 0.98 1.11 1.08 1.03 1.04 0.99 1.03 0.97 0.94 0.90 0.85 0.79 0.77 0.77 0.75 0.76 0.76 0.74 0.70 0.67 0.65 0.64
1.95 1.90 1.80 1.75 1.85 1.95 1.34 0.77 0.64 0.68 0.61 0.39 0.37 0.55 0.79 0.74 0.61 0.68 0.84 1.02 1.05 1.09 1.05 0.90 0.80 0.78 0.80 0.77 0.93 1.14 1.19 1.13 1.03 1.01 0.99 0.99 0.92 0.83 0.78 0.72 0.73 0.78 0.80 0.85 0.86 0.77 0.75 0.71 0.67
1.67 1.87 2.00 2.10 1.98 1.64 1.07 0.79 0.59 0.49 0.45 0.36 0.32 0.38 0.49 0.45 0.50 0.64 0.74 0.81 0.90 0.89 0.90 0.89 0.89 0.92 0.97 0.98 0.96 1.18 1.26 1.18 0.99 0.89 0.93 0.93 0.79 0.81 0.82 0.71 0.84 0.84 0.90 0.94 0.94 0.88 0.86 0.76 0.67
1.67 1.85 1.89 1.55 1.21 1.07 0.92 0.80 0.70 0.66 0.62 0.43 0.38 0.39 0.41 0.44 0.49 0.58 0.65 0.69 0.72 0.73 0.70 0.69 0.72 0.79 0.91 0.99 1.32 1.53 1.33 1.21 0.95 0.94 0.83 0.89 0.96 1.03 0.86 0.80 0.96 0.99 1.04 1.01 1.00 1.04 0.95 0.77 0.59
1.38 1.60 1.35 1.15 0.93 0.74 0.76 0.77 0.63 0.65 0.64 0.44 0.41 0.44 0.47 0.51 0.51 0.56 0.59 0.57 0.59 0.57 0.52 0.50 0.48 0.50 0.59 0.79 1.14 1.43 1.55 1.52 1.43 1.19 0.96 0.97 0.85 0.74 0.68 0.70 0.80 0.88 0.95 0.91 0.95 0.95 0.80 0.71 0.65
1.37 1.25 1.02 0.99 0.74 0.73 0.73 0.68 0.63 0.56 0.49 0.36 0.42 0.42 0.45 0.49 0.49 0.48 0.51 0.51 0.53 0.54 0.52 0.47 0.45 0.42 0.44 0.53 0.70 0.90 1.04 1.14 1.16 1.01 0.91 0.98 0.87 0.76 0.76 0.76 0.75 0.75 0.83 0.93 0.96 0.91 0.78 0.66 0.60
1.41 1.31 0.96 0.77 0.70 0.66 0.61 0.60 0.58 0.60 0.50 0.37 0.41 0.49 0.54 0.57 0.54 0.51 0.50 0.52 0.54 0.60 0.64 0.59 0.49 0.45 0.44 0.48 0.55 0.63 0.78 0.87 0.90 0.92 0.88 0.91 0.92 0.89 0.86 0.78 0.77 0.71 0.77 0.87 0.94 0.90 0.81 0.75 0.70
1.21 1.19 1.19 1.01 0.81 0.68 0.67 0.57 0.47 0.56 0.55 0.47 0.52 0.59 0.61 0.68 0.62 0.57 0.55 0.56 0.58 0.64 0.66 0.68 0.59 0.55 0.50 0.48 0.51 0.55 0.65 0.73 0.77 0.76 0.76 0.86 0.94 0.94 0.90 0.85 0.86 0.83 0.84 0.96 0.94 0.86 0.91 0.88 0.79
1.13 1.30 1.25 1.09 0.89 0.78 0.75 0.79 0.54 0.48 0.55 0.56 0.63 0.59 0.56 0.62 0.61 0.59 0.58 0.56 0.60 0.64 0.62 0.62 0.63 0.63 0.62 0.60 0.58 0.57 0.64 0.74 0.76 0.73 0.68 0.70 0.78 0.84 0.87 0.87 0.87 0.91 1.00 1.05 1.07 0.91 0.91 0.86 0.78
1.37 1.60 1.61 1.15 1.00 0.88 0.94 0.98 0.62 0.53 0.54 0.49 0.49 0.47 0.48 0.50 0.52 0.53 0.55 0.53 0.54 0.52 0.50 0.54 0.56 0.61 0.68 0.71 0.72 0.73 0.73 0.80 0.77 0.76 0.69 0.64 0.69 0.77 0.90 0.91 0.88 0.91 1.03 1.11 1.15 1.06 1.00 0.93 0.88
1.47 1.46 1.37 1.13 0.93 0.87 0.83 0.76 0.59 0.53 0.51 0.43 0.41 0.37 0.36 0.37 0.38 0.40 0.42 0.45 0.46 0.44 0.43 0.46 0.50 0.52 0.64 0.73 0.76 0.84 0.86 0.87 0.85 0.84 0.74 0.71 0.76 0.84 1.01 1.10 1.11 1.11 1.13 1.11 1.06 1.11 1.09 1.06 1.04
1.19 1.09 1.02 0.93 0.77 0.73 0.68 0.57 0.47 0.44 0.40 0.36 0.33 0.30 0.29 0.29 0.28 0.30 0.31 0.32 0.33 0.34 0.36 0.40 0.45 0.48 0.55 0.70 0.82 0.97 1.09 1.05 1.07 1.01 0.89 0.91 1.05 1.19 1.32 1.32 1.40 1.46 1.34 1.29 1.23 1.23 1.19 1.13 1.15
0.82 0.84 0.87 0.79 0.58 0.58 0.55 0.46 0.42 0.40 0.38 0.37 0.33 0.26 0.24 0.22 0.18 0.18 0.23 0.25 0.24 0.23 0.26 0.32 0.36 0.44 0.53 0.61 0.75 0.96 1.24 1.35 1.44 1.40 1.22 1.16 1.28 1.52 1.72 1.69 1.73 1.76 1.63 1.58 1.64 1.82 1.77 1.51 1.28
0.79 0.90 0.88 0.79 0.53 0.47 0.46 0.38 0.34 0.35 0.38 0.34 0.32 0.26 0.20 0.17 0.12 0.11 0.13 0.15 0.16 0.17 0.18 0.24 0.32 0.42 0.51 0.60 0.77 0.94 1.08 1.08 1.26 1.41 1.39 1.30 1.29 1.44 1.57 1.83 1.92 1.84 1.85 1.97 1.99 2.30 2.43 2.01 1.59
0.75 0.74 0.75 0.74 0.56 0.46 0.41 0.40 0.29 0.27 0.31 0.29 0.27 0.24 0.21 0.18 0.12 0.10 0.11 0.10 0.11 0.12 0.13 0.17 0.24 0.35 0.48 0.64 0.87 1.09 1.27 1.36 1.42 1.35 1.43 1.44 1.37 1.41 1.51 1.67 1.82 1.83 1.89 1.98 2.10 2.41 2.85 2.61 2.09
0.65 0.44 0.42 0.47 0.58 0.57 0.48 0.52 0.31 0.28 0.34 0.34 0.30 0.24 0.22 0.20 0.14 0.12 0.10 0.11 0.11 0.11 0.10 0.14 0.23 0.38 0.59 0.80 1.06 1.31 1.51 1.55 1.44 1.48 1.51 1.39 1.34 1.30 1.37 1.51 1.65 1.77 1.79 1.92 2.02 2.13 2.58 2.89 2.58
0.41 0.34 0.31 0.37 0.46 0.43 0.34 0.41 0.33 0.32 0.42 0.40 0.35 0.30 0.24 0.21 0.19 0.17 0.15 0.17 0.18 0.17 0.19 0.25 0.46 0.71 0.96 1.17 1.43 1.72 1.72 1.61 1.51 1.51 1.48 1.42 1.43 1.40 1.39 1.53 1.61 1.63 1.68 1.78 2.11 2.36 2.61 2.79 2.72
0.30 0.32 0.34 0.37 0.43 0.42 0.28 0.33 0.39 0.35 0.39 0.42 0.40 0.34 0.26 0.22 0.26 0.31 0.34 0.39 0.44 0.48 0.62 0.81 1.08 1.27 1.36 1.49 1.64 1.76 1.73 1.74 1.68 1.50 1.40 1.40 1.44 1.49 1.54 1.60 1.60 1.58 1.61 1.72 1.94 2.21 2.42 2.73 2.89
0.23 0.34 0.52 0.55 0.55 0.41 0.25 0.39 0.46 0.37 0.32 0.32 0.33 0.28 0.23 0.27 0.36 0.48 0.62 0.74 0.86 0.98 1.12 1.25 1.43 1.59 1.54 1.51 1.56 1.59 1.60 1.59 1.57 1.51 1.41 1.36 1.37 1.38 1.42 1.53 1.65 1.73 1.75 1.87 2.04 2.18 2.09 2.30 2.67
0.20 0.29 0.56 0.67 0.54 0.40 0.36 0.56 0.56 0.44 0.33 0.25 0.19 0.19 0.28 0.41 0.54 0.65 0.73 0.84 1.01 1.15 1.21 1.21 1.32 1.43 1.40 1.38 1.35 1.32 1.37 1.40 1.35 1.28 1.26 1.29 1.36 1.34 1.28 1.33 1.44 1.58 1.74 1.79 1.84 1.85 1.82 1.94 2.19
0.16 0.20 0.28 0.43 0.34 0.34 0.45 0.68 0.60 0.39 0.33 0.27 0.23 0.27 0.42 0.61 0.81 0.96 1.06 1.18 1.22 1.26 1.32 1.24 1.23 1.29 1.30 1.24 1.15 1.13 1.18 1.24 1.25 1.19 1.20 1.19 1.18 1.11 1.03 1.04 1.08 1.16 1.25 1.32 1.48 1.56 1.67 1.71 1.83
0.17 0.25 0.33 0.52 0.58 0.58 0.61 0.70 0.60 0.47 0.44 0.47 0.53 0.64 0.69 0.80 1.05 1.34 1.59 1.76 1.58 1.31 1.21 1.17 1.09 1.10 1.19 1.17 1.10 1.06 1.13 1.14 1.12 1.15 1.12 1.11 1.11 1.03 0.96 0.92 0.87 0.84 0.83 0.87 1.05 1.24 1.35 1.46 1.62
0.20 0.32 0.40 0.53 0.63 0.79 0.96 1.03 0.85 0.86 0.88 0.96 1.07 1.11 1.12 1.21 1.20 1.35 1.55 1.72 1.62 1.31 1.08 1.09 1.10 1.06 1.04 1.05 1.07 1.07 1.04 0.93 0.92 0.97 0.97 0.96 0.96 1.01 1.00 0.91 0.84 0.91 0.91 0.88 0.94 1.00 1.04 1.11 1.25
0.31 0.42 0.56 0.76 0.69 0.73 0.93 1.09 0.95 0.94 0.96 1.06 1.23 1.31 1.30 1.21 1.11 1.09 1.15 1.21 1.23 1.09 0.90 0.87 1.00 1.06 1.02 0.99 1.02 1.01 0.91 0.85 0.81 0.80 0.77 0.68 0.66 0.68 0.78 0.86 0.81 0.80 0.83 0.85 0.92 0.93 0.96 0.97 1.05